Flag for Poland Weather past 2 weeks in Bielsko-Biała, Poland

Now
58 °F

Overcast.


Feels Like: 58 °F
Forecast: 50 / 60 °F
Wind: 2 mph from Northeast

Location: Katowice

Current Time: May 25, 2015 at 10:19:09 AM

Latest Report: May 25, 2015 at 9:00 AM


Visibility: 6 mi

Pressure: 29.97 "Hg

Humidity: 82%

Dew point: 52 °F

Location of Bielsko-BiałaLocation

Historic Weather in Bielsko-Biała — Graph

°F

Bielsko-Biała temperature yesterday

Maximum temperature yesterday: 58 °F (at 6:00 PM)
Minimum temperature yesterday: 50 °F (at 6:00 AM)
Average temperature yesterday: 53 °F

Past Weeks' High & Low Weather Summary

 TemperatureHumidityPressure
High75 °F (May 19, 12:00 PM)98% (May 15, 6:00 AM)30.41 "Hg (May 15, 6:00 AM)
Low36 °F (May 15, 3:00 AM)27% (May 12, 4:00 PM)29.75 "Hg (May 19, 12:00 PM)
Average55 °F69%30.06 "Hg
* Reported May 10 9:00 AM — May 25 9:00 AM, Bielsko-Biała, Weather by CustomWeather, © 2015

Note: Actual official high and low records may vary slightly from our data, if they occured in-between our weather recording intervals... More about our weather records

Advertising

Bielsko-Biała weather history for previous 24 hours

 ConditionsComfort  
Time TempWeatherWind HumidityBarometerVisibility
9:00 AM
Mon, May 25
58 °FOvercast.2 mph82%29.97 "Hg6 mi
8:00 AM54 °FOvercast.1 mph91%29.98 "Hg6 mi
7:00 AM53 °FLight rain. Overcast.1 mph94%29.99 "Hg6 mi
6:00 AM52 °FOvercast.1 mph96%30.00 "Hg6 mi
5:00 AM51 °FOvercast.1 mph98%30.01 "Hg6 mi
4:00 AM49 °FFog.No wind98%30.02 "Hg6 mi
3:00 AM47 °FFog.No wind98%30.04 "Hg6 mi
2:00 AM45 °FFog.No wind97%30.06 "Hg6 mi
1:00 AM46 °FFog.1 mph97%30.06 "Hg6 mi
12:00 AM47 °FFog.1 mph96%30.07 "Hg6 mi
10:00 PM
Sun, May 24
53 °FOvercast.1 mph90%30.08 "Hg9 mi
9:00 PM54 °FOvercast.2 mph86%30.06 "Hg12 mi
8:00 PM56 °FOvercast.2 mph78%30.07 "Hg19 mi
7:00 PM58 °FOvercast.3 mph70%30.06 "Hg19 mi
6:00 PM58 °FOvercast.2 mph69%30.06 "Hg12 mi
5:00 PM58 °FOvercast.2 mph72%30.08 "Hg12 mi
4:00 PM57 °FOvercast.3 mph78%30.09 "Hg12 mi
3:00 PM56 °FOvercast.3 mph82%30.11 "Hg19 mi
2:00 PM54 °FOvercast.2 mph87%30.11 "Hg9 mi
1:00 PM53 °FLight rain. Low clouds.2 mph91%30.12 "Hg6 mi
12:00 PM53 °FLight rain. Overcast.3 mph85%30.12 "Hg9 mi
11:00 AM52 °FOvercast.2 mph88%30.11 "Hg9 mi
10:00 AM52 °FOvercast.2 mph89%30.10 "Hg6 mi
Weather by CustomWeather, © 2015

See weather overviewHow to use our weather pages